Time,TemperatureF,DewpointF,PressureIn,WindDirection,WindDirectionDegrees,WindSpeedMPH,WindSpeedGustMPH,Humidity,HourlyPrecipIn,Conditions,Clouds,dailyrainin,SolarRadiationWatts/m^2,SoftwareType,DateUTC
2013-02-09 02:00:00,36.0,32.0,-100.00,North,4,2.0,-999.0,87,-99.99,,,-99.99,0.000000,,2013-02-09 08:00:00,
2013-02-09 02:52:00,36.0,32.0,-100.00,North,4,2.0,-999.0,87,-99.99,,,-99.99,0.000000,,2013-02-09 08:52:00,
2013-02-09 03:00:00,35.0,33.0,-100.00,NE,41,2.0,-999.0,92,-99.99,,,-99.99,0.000000,,2013-02-09 09:00:00,
2013-02-09 03:52:00,35.0,33.0,-100.00,NE,41,2.0,-999.0,92,-99.99,,,-99.99,0.000000,,2013-02-09 09:52:00,
2013-02-09 04:00:00,35.0,32.0,-100.00,NNE,30,2.0,-999.0,88,-99.99,,,-99.99,0.000000,,2013-02-09 10:00:00,
2013-02-09 04:52:00,35.0,32.0,-100.00,NNE,30,2.0,-999.0,88,-99.99,,,-99.99,0.000000,,2013-02-09 10:52:00,
2013-02-09 05:00:00,34.0,32.0,-100.00,NE,37,3.0,-999.0,89,-99.99,,,-99.99,0.000000,,2013-02-09 11:00:00,
2013-02-09 05:52:00,34.0,32.0,-100.00,NE,37,3.0,-999.0,89,-99.99,,,-99.99,0.000000,,2013-02-09 11:52:00,
2013-02-09 06:00:00,34.0,31.0,-100.00,NE,54,3.0,-999.0,91,-99.99,,,-99.99,0.000000,,2013-02-09 12:00:00,
2013-02-09 06:52:00,34.0,31.0,-100.00,NE,54,3.0,-999.0,91,-99.99,,,-99.99,0.000000,,2013-02-09 12:52:00,
2013-02-09 07:00:00,33.0,31.0,-100.00,NE,53,3.0,-999.0,91,-99.99,,,-99.99,2.770000,,2013-02-09 13:00:00,
2013-02-09 07:52:00,33.0,31.0,-100.00,NE,53,3.0,-999.0,91,-99.99,,,-99.99,2.770000,,2013-02-09 13:52:00,
2013-02-09 08:00:00,35.0,32.0,-100.00,NE,43,4.0,-999.0,88,-99.99,,,-99.99,78.500000,,2013-02-09 14:00:00,
2013-02-09 08:52:00,35.0,32.0,-100.00,NE,43,4.0,-999.0,88,-99.99,,,-99.99,78.500000,,2013-02-09 14:52:00,
2013-02-09 09:00:00,39.0,33.0,-100.00,NE,51,4.0,-999.0,79,-99.99,,,-99.99,241.199997,,2013-02-09 15:00:00,
2013-02-09 09:52:00,39.0,33.0,-100.00,NE,51,4.0,-999.0,79,-99.99,,,-99.99,241.199997,,2013-02-09 15:52:00,
2013-02-09 10:00:00,41.0,33.0,-100.00,ENE,73,5.0,-999.0,73,-99.99,,,-99.99,379.100006,,2013-02-09 16:00:00,
2013-02-09 10:52:00,41.0,33.0,-100.00,ENE,73,5.0,-999.0,73,-99.99,,,-99.99,379.100006,,2013-02-09 16:52:00,
2013-02-09 11:00:00,45.0,33.0,-100.00,East,86,5.0,-999.0,64,-99.99,,,-99.99,586.799988,,2013-02-09 17:00:00,
2013-02-09 11:52:00,45.0,33.0,-100.00,East,86,5.0,-999.0,64,-99.99,,,-99.99,586.799988,,2013-02-09 17:52:00,
2013-02-09 12:00:00,48.0,35.0,-100.00,East,96,4.0,-999.0,60,-99.99,,,-99.99,642.799988,,2013-02-09 18:00:00,
2013-02-09 12:52:00,48.0,35.0,-100.00,East,96,4.0,-999.0,60,-99.99,,,-99.99,642.799988,,2013-02-09 18:52:00,
2013-02-09 13:00:00,51.0,36.0,-100.00,SE,137,4.0,-999.0,55,-99.99,,,-99.99,653.099976,,2013-02-09 19:00:00,
2013-02-09 13:52:00,51.0,36.0,-100.00,SE,137,4.0,-999.0,55,-99.99,,,-99.99,653.099976,,2013-02-09 19:52:00,
2013-02-09 14:00:00,54.0,35.0,-100.00,ESE,121,4.0,-999.0,49,-99.99,,,-99.99,543.900024,,2013-02-09 20:00:00,
2013-02-09 14:52:00,54.0,35.0,-100.00,ESE,121,4.0,-999.0,49,-99.99,,,-99.99,543.900024,,2013-02-09 20:52:00,
2013-02-09 15:00:00,55.0,33.0,-100.00,ESE,103,4.0,-999.0,44,-99.99,,,-99.99,322.899994,,2013-02-09 21:00:00,
2013-02-09 15:52:00,55.0,33.0,-100.00,ESE,103,4.0,-999.0,44,-99.99,,,-99.99,322.899994,,2013-02-09 21:52:00,
2013-02-09 16:00:00,56.0,35.0,-100.00,ENE,74,4.0,-999.0,45,-99.99,,,-99.99,262.799988,,2013-02-09 22:00:00,
2013-02-09 16:52:00,56.0,35.0,-100.00,ENE,74,4.0,-999.0,45,-99.99,,,-99.99,262.799988,,2013-02-09 22:52:00,
2013-02-09 17:00:00,55.0,37.0,-100.00,ENE,65,3.0,-999.0,51,-99.99,,,-99.99,80.000000,,2013-02-09 23:00:00,
2013-02-09 17:52:00,55.0,37.0,-100.00,ENE,65,3.0,-999.0,51,-99.99,,,-99.99,80.000000,,2013-02-09 23:52:00,
2013-02-09 18:00:00,52.0,40.0,-100.00,ENE,74,1.0,-999.0,64,-99.99,,,-99.99,10.040000,,2013-02-10 00:00:00,
2013-02-09 18:52:00,52.0,40.0,-100.00,ENE,74,1.0,-999.0,64,-99.99,,,-99.99,10.040000,,2013-02-10 00:52:00,
2013-02-09 19:00:00,52.0,40.0,-100.00,NE,56,2.0,-999.0,63,-99.99,,,-99.99,0.000000,,2013-02-10 01:00:00,
2013-02-09 19:52:00,52.0,40.0,-100.00,NE,56,2.0,-999.0,63,-99.99,,,-99.99,0.000000,,2013-02-10 01:52:00,
2013-02-09 20:00:00,53.0,37.0,-100.00,East,90,3.0,-999.0,53,-99.99,,,-99.99,0.000000,,2013-02-10 02:00:00,
2013-02-09 20:52:00,53.0,37.0,-100.00,East,90,3.0,-999.0,53,-99.99,,,-99.99,0.000000,,2013-02-10 02:52:00,
2013-02-09 21:00:00,53.0,38.0,-100.00,ESE,104,4.0,-999.0,57,-99.99,,,-99.99,0.000000,,2013-02-10 03:00:00,
2013-02-09 21:52:00,53.0,38.0,-100.00,ESE,104,4.0,-999.0,57,-99.99,,,-99.99,0.000000,,2013-02-10 03:52:00,
2013-02-09 22:00:00,53.0,38.0,-100.00,ESE,106,3.0,-999.0,57,-99.99,,,-99.99,0.000000,,2013-02-10 04:00:00,
2013-02-09 22:52:00,53.0,38.0,-100.00,ESE,106,3.0,-999.0,57,-99.99,,,-99.99,0.000000,,2013-02-10 04:52:00,
2013-02-09 23:00:00,53.0,39.0,-100.00,ESE,110,6.0,-999.0,59,-99.99,,,-99.99,0.000000,,2013-02-10 05:00:00,
2013-02-09 23:52:00,53.0,39.0,-100.00,ESE,110,6.0,-999.0,59,-99.99,,,-99.99,0.000000,,2013-02-10 05:52:00,